Location: Newark
(48.1500°N, 2.9667°W)
Time: 20:27:10
(UTC+00:00)

A-11 Canister half - Pass Details

Date: 24 January 2020
Orbit: 1524 x 1684 km, 47.3° (Epoch: 26 February)

Event Time Altitude Azimuth Distance (km) Brightness Sun altitude
Rises 20:41:26 0° 266° (W) 4,700 12.4 -36.9°
Reaches altitude 10° 20:44:27 10° 266° (W) 3,731 11.7 -37.4°
Enters shadow 20:53:06 77° 252° (WSW) 1,617 9.0 -38.8°
Maximum altitude 20:53:56 86° 180° (S) 1,592 - -38.9°
Drops below altitude 10° 21:03:47 10° 93° (E) 3,855 - -40.5°
Sets 21:06:56 0° 93° (E) 4,862 - -41.0°
